This is the latest recevied weather packets stored in our database for station/object W4KBW. If no packets are shown the sender has not sent any weather packets the latest 10 day(s).
| Time | Temp. | Humidity | Pressure | Rain* | Wind** | Luminosity | Snow |
|---|---|---|---|---|---|---|---|
| 1777671971 | 33.89° C | 100% | 1007 hPa | 0 mm | - | - | - |
| 1777671903 | 33.89° C | 100% | 1007 hPa | 0 mm | - | - | - |
| 1777671020 | 33.89° C | 100% | 1007 hPa | 0 mm | - | - | - |
| 1777670973 | 33.89° C | 100% | 1007 hPa | 0 mm | - | - | - |
| 1777670128 | 33.33° C | 100% | 1007.4 hPa | 0 mm | - | - | - |
| 1777670043 | 33.33° C | 100% | 1007.4 hPa | 0 mm | - | - | - |
| 1777669245 | 33.89° C | 100% | 1007.4 hPa | 0 mm | - | - | - |
| 1777669143 | 33.89° C | 100% | 1007.4 hPa | 0 mm | - | - | - |
| 1777668318 | 33.33° C | 100% | 1007.4 hPa | 0 mm | - | - | - |
| 1777668243 | 33.33° C | 100% | 1007.4 hPa | 0 mm | - | - | - |
| 1777667394 | 33.33° C | 100% | 1007.5 hPa | 0 mm | - | - | - |
| 1777667313 | 33.33° C | 100% | 1007.5 hPa | 0 mm | - | - | - |
| 1777666442 | 33.89° C | 100% | 1007.7 hPa | 0 mm | - | - | - |
| 1777666383 | 33.89° C | 100% | 1007.7 hPa | 0 mm | - | - | - |
| 1777665483 | 34.44° C | 100% | 1007.9 hPa | 0 mm | - | - | - |
| 1777664626 | 33.89° C | 100% | 1008.4 hPa | 0 mm | - | - | - |
| 1777664553 | 33.89° C | 100% | 1008.4 hPa | 0 mm | - | - | - |
| 1777663777 | 34.44° C | 100% | 1008.7 hPa | 0 mm | - | - | - |
| 1777663653 | 34.44° C | 100% | 1008.7 hPa | 0 mm | - | - | - |
| 1777662916 | 33.33° C | 100% | 1009 hPa | 0 mm | - | - | - |
| 1777662753 | 33.33° C | 100% | 1009 hPa | 0 mm | - | - | - |
| 1777661942 | 33.33° C | 100% | 1009.1 hPa | 0 mm | - | - | - |
| 1777661823 | 33.33° C | 100% | 1009.1 hPa | 0 mm | - | - | - |
| 1777660997 | 33.33° C | 100% | 1009.5 hPa | 0 mm | - | - | - |
| 1777660893 | 33.33° C | 100% | 1009.5 hPa | 0 mm | - | - | - |
* Rain latest hour (hover to see other rain measurements)
** Current wind speed in m/s (hover to see current wind gust speed)